Home   Weather   Ljubljana   Past weeks

Flag for Slovenia Past Weather in Ljubljana, Slovenia — Yesterday and Last 2 Weeks

Now
69 °F

Passing clouds.


Feels Like: 69 °F
Forecast: 50 / 75 °F
Wind: 3 mph from East

Location: Ljubljana / Bezigrad

Current Time: May 26, 2017 at 1:06:09 pm

Latest Report: May 26, 2017 at 12:00 pm


Visibility: 31 mi

Pressure: 30.09 "Hg

Humidity: 41%

Dew Point: 44 °F

Location of LjubljanaLocation

Past Weather in Ljubljana — Graph

°F

Ljubljana Temperature Yesterday

Maximum temperature yesterday: 71 °F (at 4:00 pm)
Minimum temperature yesterday: 53 °F (at 6:00 am)
Average temperature yesterday: 63 °F

High & Low Weather Summary for the Past Weeks

 TemperatureHumidityPressure
High79 °F (May 18, 5:00 pm)96% (May 16, 6:00 am)30.40 "Hg (May 16, 6:00 am)
Low51 °F (May 26, 6:00 am)31% (May 23, 6:00 pm)29.68 "Hg (May 12, 5:00 am)
Average63 °F66%30.04 "Hg
* Reported May 11 11:00 am — May 26 11:00 am, Ljubljana. Weather by CustomWeather, © 2017

Note: Actual official high and low records may vary slightly from our data, if they occured in-between our weather recording intervals... More about our weather records

Advertising

Ljubljana Weather History for the Previous 24 Hours

Scroll right to see more
 ConditionsComfort  
Time TempWeatherWind HumidityBarometerVisibility
11:00 am
Fri, May 26
67 °FPassing clouds.2 mph42%30.11 "Hg31 mi
10:00 am64 °FPassing clouds.1 mph51%30.12 "Hg31 mi
9:00 am60 °FPassing clouds.1 mph65%30.14 "Hg31 mi
8:00 am56 °FPassing clouds.1 mph71%30.14 "Hg31 mi
7:00 am53 °FPassing clouds.1 mph79%30.15 "Hg31 mi
6:00 am51 °FPassing clouds.1 mph87%30.15 "Hg31 mi
5:00 am51 °FCool.1 mph86%30.14 "HgN/A
4:00 am52 °FCool.No wind83%30.14 "HgN/A
3:00 am53 °FCool.No wind81%30.13 "HgN/A
2:00 am55 °FCool.1 mph77%30.14 "HgN/A
1:00 am57 °FCool.1 mph74%30.13 "HgN/A
12:00 am59 °FCool.No wind66%30.12 "HgN/A
11:00 pm
Thu, May 25
62 °FRefreshingly cool.1 mph55%30.11 "HgN/A
10:00 pm63 °FPassing clouds.2 mph58%30.09 "Hg25 mi
9:00 pm65 °FPassing clouds.1 mph50%30.06 "Hg25 mi
8:00 pm67 °FScattered clouds.1 mph47%30.03 "Hg25 mi
7:00 pm69 °FMild.1 mph43%30.03 "HgN/A
6:00 pm69 °FMild.2 mph44%30.03 "HgN/A
5:00 pm70 °FMild.3 mph42%30.03 "HgN/A
4:00 pm71 °FMild.2 mph43%30.03 "HgN/A
3:00 pm70 °FPartly sunny.3 mph39%30.04 "Hg25 mi
2:00 pm70 °FScattered clouds.2 mph41%30.05 "Hg19 mi
1:00 pm68 °FScattered clouds.2 mph47%30.07 "Hg19 mi
Weather by CustomWeather, © 2017

See weather overviewHow to use our weather pages